This is the latest recevied weather packets stored in our database for station/object KBTL-WX. If no packets are shown the sender has not sent any weather packets the latest 10 day(s).
| Time | Temp. | Humidity | Pressure | Rain* | Wind** | Luminosity | Snow |
|---|---|---|---|---|---|---|---|
| 1777777237 | 3.89° C | 53% | 983.4 hPa | 0 mm | - | - | - |
| 1777776313 | 3.89° C | 50% | 983.5 hPa | 0 mm | - | - | - |
| 1777775432 | 3.89° C | 56% | 984.1 hPa | 0 mm | - | - | - |
| 1777774514 | 3.89° C | 56% | 984.1 hPa | 0 mm | - | - | - |
| 1777773636 | 4.44° C | 56% | 984.1 hPa | 0 mm | - | - | - |
| 1777772731 | 4.44° C | 54% | 983.3 hPa | 0 mm | - | - | - |
| 1777771831 | 4.44° C | 54% | 983.3 hPa | 0 mm | - | - | - |
| 1777770913 | 5° C | 54% | 983.3 hPa | 0 mm | - | - | - |
| 1777770035 | 5° C | 54% | 983.3 hPa | 0 mm | - | - | - |
| 1777769113 | 5.56° C | 42% | 983.9 hPa | 0 mm | - | - | - |
| 1777768226 | 6.11° C | 42% | 984.1 hPa | 0 mm | - | - | - |
| 1777767314 | 6.67° C | 42% | 984.1 hPa | 0 mm | - | - | - |
| 1777766433 | 7.22° C | 42% | 984.1 hPa | 0 mm | - | - | - |
| 1777765514 | 7.78° C | 38% | 983.9 hPa | 0 mm | - | - | - |
| 1777764625 | 7.78° C | 39% | 984 hPa | 0 mm | - | - | - |
| 1777763714 | 7.78° C | 39% | 984 hPa | 0 mm | - | - | - |
| 1777762837 | 8.33° C | 39% | 984 hPa | 0 mm | - | - | - |
| 1777761913 | 8.33° C | 39% | 984.5 hPa | 0 mm | - | - | - |
| 1777761031 | 8.33° C | 40% | 985.1 hPa | 0 mm | - | - | - |
| 1777760114 | 8.33° C | 40% | 985.1 hPa | 0 mm | - | - | - |
| 1777759234 | 8.33° C | 40% | 985.1 hPa | 0 mm | - | - | - |
| 1777758314 | 8.33° C | 36% | 985.2 hPa | 0 mm | - | - | - |
| 1777757432 | 8.89° C | 36% | 984.8 hPa | 0 mm | - | - | - |
| 1777756513 | 8.89° C | 36% | 984.8 hPa | 0 mm | - | - | - |
| 1777755637 | 8.89° C | 36% | 984.8 hPa | 0 mm | - | - | - |
* Rain latest hour (hover to see other rain measurements)
** Current wind speed in m/s (hover to see current wind gust speed)